Regional Weather Roundup
Issued by NWS

Home | Current Version | Previous Version | Text Only | Print | Product List | Glossary Off
Versions: 1 2 3 4 5 6 7 8 9 10 11 12 13 14 15 16 17 18 19 20 21 22 23 24 25 26 27 28 29 30 31 32 33 34 35 36 37 38 39 40 41 42 43 44 45 46 47 48 49 50

430
ASUS43 KMKX 281011
RWRWI

WISCONSIN REGIONAL WEATHER ROUNDUP
NATIONAL WEATHER SERVICE MILWAUKEE/SULLIVAN WI
500 AM CDT FRI JUL 28 2017

NOTE: "FAIR" INDICATES FEW OR NO CLOUDS BELOW 12,000 FEET WITH NO
SIGNIFICANT WEATHER AND/OR OBSTRUCTIONS TO VISIBILITY.

WIZ001-002-006>008-014>016-023>028-281100-
NORTHWEST WISCONSIN

CITY           SKY/WX    TMP DP  RH WIND       PRES   REMARKS
SUPERIOR ARPT  NOT AVBL
ASHLAND        FOG       50  50 100 SW3       30.12R VSB 1/4
HAYWARD        CLEAR     52  50  93 CALM      30.12R
SIREN          CLEAR     55  54  94 CALM      30.10S
CUMBERLAND     CLEAR     57  55  94 NE6       30.10S
RICE LAKE      CLEAR     58  57  96 CALM      30.11S
CHETEK         CLEAR     62  58  87 NE3       30.09S
LADYSMITH      CLEAR     59  55  87 E3        30.12S
EAU CLAIRE     CLEAR     61  59  93 NE5       30.07R
MENOMONIE      CLEAR     62  59  91 N5        30.07S
NEW RICHMOND   CLEAR     59  58  96 CALM      30.09S
OSCEOLA        CLEAR     58  58 100 CALM      30.11S
$$

WIZ003>005-009-010-017-018-281100-
NORTH CENTRAL WISCONSIN

CITY           SKY/WX    TMP DP  RH WIND       PRES   REMARKS
MANITOWISH WTR FOG       48  48 100 CALM      30.13S VSB 1/4
ARBOR VITAE    FOG       52  51  95 CALM      30.12S VSB 1/2
WOODRUFF       FOG       52  51  95 CALM      30.12S VSB 1/2
RHINELANDER    CLEAR     47  47 100 CALM      30.13R FOG
EAGLE RIVER    CLEAR     48  48 100 CALM      30.13R
LAND O LAKES   CLEAR     45  45 100 CALM      30.15S FOG
PHILLIPS       CLEAR     51  51 100 CALM      30.11S
TOMAHAWK         N/A     44  43  96 CALM      30.13R FOG
MEDFORD        CLEAR     54  53  97 NE3       30.10S
MERRILL        CLEAR     52  52 100 CALM      30.11S FOG
$$

WIZ029-030-035-036-043>047-281100-
CENTRAL WISCONSIN

CITY           SKY/WX    TMP DP  RH WIND       PRES   REMARKS
WAUSAU         CLEAR     58  56  93 N6        30.08S
MOSINEE        CLEAR     59  57  94 N6        30.10S
MARSHFIELD     CLEAR     60  57  89 NE5       30.07S
STEVENS POINT  CLEAR     56  56 100 CALM      30.09S
WAUPACA        CLEAR     59  56  90 N3        30.07R
WAUTOMA        CLEAR     60  56  86 NE3       30.06S
WISC RAPIDS    CLEAR     63  58  83 NE8       30.08S
CAMP DOUGLAS   CLEAR     59  59 100 E3        30.06S
$$

WIZ011>013-019>022-031-037>040-048>050-281100-
NORTHEAST WISCONSIN

CITY           SKY/WX    TMP DP  RH WIND       PRES   REMARKS
ANTIGO         CLEAR     50  50 100 CALM      30.11R
SHAWANO        CLEAR     59  54  82 N5        30.07S
OCONTO         CLEAR     55  52  91 N3        30.06S
STURGEON BAY     N/A     60  58  92 N7        30.05S
GREEN BAY      CLEAR     56  54  93 N5        30.04F
MANITOWOC      CLEAR     59  54  83 N6        30.04S
APPLETON       CLEAR     55  48  76 N6        30.04S
CLINTONVILLE   CLEAR    N/A N/A N/A N3        30.07S
OSHKOSH        MOCLDY    64  57  78 NE8       30.04S
$$

WIZ032>034-041-042-053>061-281100-
SOUTHWEST WISCONSIN

CITY           SKY/WX    TMP DP  RH WIND       PRES   REMARKS
LA CROSSE      CLEAR     68  64  87 CALM      30.03S
SPARTA         CLEAR     57  57 100 CALM      30.06R
VIROQUA        CLEAR     61  61  99 CALM      30.06R
BOSCOBEL       FOG       65  64  97 CALM      30.04R VSB 1/4
PRAIRIE DU CHI PTCLDY    63  61  96 E5        30.03S FOG
PLATTEVILLE    CLEAR     61  60  94 NE6       30.04R
$$

WIZ056-057-062-063-064-067-068-281100-
SOUTH CENTRAL WISCONSIN

CITY           SKY/WX    TMP DP  RH WIND       PRES   REMARKS
REEDSBURG      PTCLDY    63  62  96 CALM      30.05R
BARABOO/DELLS  PTCLDY    62  57  84 NE3       30.05R
LONE ROCK      CLOUDY    63  63 100 CALM      30.03S
MINERAL POINT  CLOUDY    64  61  88 N6        30.04S
MADISON        CLEAR     60  56  86 N5        30.02F
MIDDLETON      PTCLDY    60  60  97 CALM      30.04S
WATERTOWN      PTCLDY    60  59  94 N6        30.02S
MONROE         CLEAR     59  55  88 N7        30.01S
JANESVILLE     CLEAR     63  55  77 NE6       30.00R
$$

WIZ051-052-058>065-066-070>072-281100-
SOUTHEAST WISCONSIN

CITY           SKY/WX    TMP DP  RH WIND       PRES   REMARKS
MILWAUKEE      PTCLDY    67  63  87 N15       30.00R
WAUKESHA       CLEAR     59  55  88 N8        30.02S
MILWAUKEE/TIMM MOCLDY    61  55  82 N7        30.02S
RACINE         CLEAR     67  63  87 N14       30.00R
KENOSHA        CLEAR     66  62  87 N8        29.98S
FOND DU LAC    CLOUDY    65  54  67 NE10      30.05R
SHEBOYGAN      CLOUDY    62  59  90 N10       30.03R
WEST BEND      CLOUDY    63  59  88 NE7       30.03S
JUNEAU         CLOUDY    61  56  83 N3        30.04F
$$

LSZ147-162-281100-
LAKE SUPERIOR

STATION/POSITION TIME  TEMP    WIND        PRES    WAVE
                       AIR SEA DIR/SP/G            HT/PER
                 (UTC) (F)     (DEG/KT/KT) (MB)    (FT/S)
W MID LAKE BUOY  0850   59 54   20/  4/  4 1019.4R   0
DEVILS ISLAND    1000   63      90/  4/  4 1019.5R
SAXON HARBOR     0930   57     210/  3/  4 1019.0S
$$

LMZ867-665-643>646-281100-
LAKE MICHIGAN

STATION/POSITION TIME  TEMP    WIND        PRES    WAVE
                       AIR SEA DIR/SP/G            HT/PER
                 (UTC) (F)     (DEG/KT/KT) (MB)    (FT/S)
CHAMBERS ISLAND  0940   65     360/ 13/ 15 1016.9S
S GREEN BAY BUOY 1000   65 71  360/ 12/ 16 1017.2
N MID LAKE BUOY  0950   63 66   30/ 12/ 14 1017.6F   2/ 4
NORTHPORT PIER   0940   63     360/  5/  7 1017.3S
KEWAUNEE LAKESHO 0948   60     320/  3/  4 1016.4R
SHEBOYGAN LAKESH 1000   64     350/ 14/ 16 1016.5R
PORT WASHINGTON  0930   65     330/  5/  9 1017.3R
MILWAUKEE LAKESH 0950   67      20/ 13/ 16   N/A
S MID LAKE BUOY  0850   71 72   60/ 10/ 12 1014.1F   3/ 6
KENOSHA   LAKESH 1000   69      20/ 20/ 22 1014.9
$$

TC  - TEMPERATURE IN CELSIUS
VSB - VISIBILITY IN STATUTE MILES
WCI - WIND CHILL INDEX
HX  - HEAT INDEX





USA.gov is the U.S. government's official web portal to all federal, state and local government web resources and services.